IRNSS-1G

Last updated on Thu Nov 21 2024 00:02:43 GMT+0000 (Coordinated Universal Time)

1 41469U 16027A 24325.57840791 -.00000331 00000+0 00000+0 0 9993 2 41469 3.8005 113.4111 0002096 337.8512 306.6858 1.00274928 31429
UTC large
Height (km)
Speed (km/s)
/
Latitude / Longitude
Inclination (degrees)
Orbital Period (minutes)
Azimuth
Elevation
Range (km)
Doppler Factor

Next 0 passes for location: London (51.5072 / 0.1276)

Sorry there are no passes over London.